When you browse on this site, cookies collect data to enhance your experience and personalize the content and advertising you see.
Visit our Privacy Policy to learn more. By continuing to use the site, you agree to this use of cookies and data.
  • In Sweden
  • List of Countries
  • For 7 days
  • Water Temperature
  • Weather Map
  • Weather Widgets
  • user-avatar
    Login

    Hourly Weather Market Harborough

    Today, 24 February, Monday

    Time Temperature Precipitation Wind Pressure Humidity
    00:00 +4°C° 0 mm 2 mps 754 mmHg 77%
    01:00 +3°C° 0.1 mm 3 mps 753 mmHg 79%
    02:00 +3°C° 0.1 mm 4 mps 752 mmHg 81%
    03:00 +2°C° 0.1 mm 5 mps 751 mmHg 83%
    04:00 +3°C° 0.1 mm 6 mps 749 mmHg 86%
    05:00 +4°C° 0.1 mm 7 mps 747 mmHg 90%
    06:00 +4°C° 0 mm 7 mps 746 mmHg 86%
    07:00 +5°C° 0.9 mm 8 mps 745 mmHg 88%
    08:00 +6°C° 0.9 mm 9 mps 743 mmHg 89%
    09:00 +7°C° 0.9 mm 10 mps 742 mmHg 91%
    10:00 +7°C° 0.9 mm 10 mps 741 mmHg 90%
    11:00 +8°C° 0.9 mm 10 mps 741 mmHg 90%
    12:00 +8°C° 0.9 mm 10 mps 740 mmHg 89%
    13:00 +8°C° 0.1 mm 10 mps 740 mmHg 87%
    14:00 +8°C° 0.1 mm 10 mps 739 mmHg 85%
    15:00 +9°C° 0.1 mm 10 mps 739 mmHg 83%
    16:00 +7°C° 0 mm 9 mps 739 mmHg 82%
    17:00 +6°C° 0 mm 9 mps 739 mmHg 80%
    18:00 +5°C° 0 mm 8 mps 740 mmHg 78%
    19:00 +4°C° 0 mm 8 mps 740 mmHg 78%
    20:00 +2°C° 0 mm 8 mps 740 mmHg 78%
    21:00 +1°C° 0 mm 8 mps 741 mmHg 78%
    22:00 +2°C° 0 mm 7 mps 741 mmHg 78%
    23:00 +2°C° 0 mm 7 mps 741 mmHg 79%

    Tomorrow, 25 February, Tuesday

    Time Temperature Precipitation Wind Pressure Humidity
    00:00 0°C° 0 mm 7 mps 741 mmHg 80%
    01:00 0°C° 0 mm 7 mps 741 mmHg 81%
    02:00 +1°C° 0 mm 6 mps 740 mmHg 81%
    03:00 -1°C° 0 mm 6 mps 740 mmHg 81%
    04:00 -1°C° 0 mm 6 mps 740 mmHg 82%
    05:00 -1°C° 0 mm 6 mps 739 mmHg 83%
    06:00 -1°C° 0 mm 6 mps 739 mmHg 84%
    07:00 +1°C° 0 mm 6 mps 739 mmHg 83%
    08:00 0°C° 0 mm 7 mps 738 mmHg 82%
    09:00 +2°C° 0 mm 7 mps 738 mmHg 81%
    10:00 +2°C° 0.1 mm 7 mps 737 mmHg 77%
    11:00 +3°C° 0.1 mm 7 mps 737 mmHg 73%
    12:00 +4°C° 0.1 mm 7 mps 737 mmHg 70%
    13:00 +4°C° 0.3 mm 7 mps 736 mmHg 68%
    14:00 +4°C° 0.3 mm 7 mps 735 mmHg 67%
    15:00 +4°C° 0.3 mm 7 mps 735 mmHg 66%
    16:00 +2°C° 0.3 mm 7 mps 734 mmHg 74%
    17:00 +1°C° 0.3 mm 6 mps 734 mmHg 83%
    18:00 -1°C° 0.3 mm 6 mps 733 mmHg 91%
    19:00 -2°C° 0.6 mm 6 mps 733 mmHg 90%
    20:00 -2°C° 0.6 mm 6 mps 733 mmHg 89%
    21:00 -2°C° 0.6 mm 7 mps 733 mmHg 89%
    22:00 -2°C° 0.2 mm 7 mps 733 mmHg 88%
    23:00 -2°C° 0.2 mm 7 mps 734 mmHg 87%

    Day after tomorrow, 26 February, Wednesday

    Time Temperature Precipitation Wind Pressure Humidity
    00:00 -2°C° 0.2 mm 7 mps 734 mmHg 86%
    01:00 -2°C° 0 mm 6 mps 734 mmHg 86%
    02:00 -3°C° 0 mm 6 mps 735 mmHg 86%
    03:00 -3°C° 0 mm 6 mps 735 mmHg 86%
    04:00 -3°C° 0 mm 6 mps 736 mmHg 86%
    05:00 -3°C° 0 mm 6 mps 736 mmHg 86%
    06:00 -3°C° 0 mm 6 mps 737 mmHg 86%
    07:00 -2°C° 0 mm 6 mps 738 mmHg 84%
    08:00 -1°C° 0 mm 7 mps 738 mmHg 82%
    09:00 0°C° 0 mm 7 mps 739 mmHg 81%
    10:00 +1°C° 0.1 mm 8 mps 740 mmHg 78%
    11:00 +1°C° 0.1 mm 8 mps 741 mmHg 75%
    12:00 +2°C° 0.1 mm 9 mps 742 mmHg 72%
    13:00 +2°C° 0.1 mm 8 mps 742 mmHg 69%
    14:00 +2°C° 0.1 mm 8 mps 743 mmHg 66%
    15:00 +3°C° 0.1 mm 7 mps 743 mmHg 63%
    16:00 +2°C° 0 mm 6 mps 743 mmHg 67%
    17:00 +1°C° 0 mm 5 mps 744 mmHg 71%
    18:00 -1°C° 0 mm 4 mps 744 mmHg 76%
    19:00 -1°C° 0 mm 4 mps 744 mmHg 79%
    20:00 -1°C° 0 mm 4 mps 744 mmHg 82%
    21:00 -2°C° 0 mm 4 mps 744 mmHg 86%
    22:00 -1°C° 0 mm 4 mps 744 mmHg 86%
    23:00 -1°C° 0 mm 4 mps 743 mmHg 87%

    27 February, Thursday

    Time Temperature Precipitation Wind Pressure Humidity
    00:00 -1°C° 0 mm 4 mps 743 mmHg 87%
    01:00 0°C° 0 mm 3 mps 743 mmHg 88%
    02:00 0°C° 0 mm 3 mps 742 mmHg 88%
    03:00 0°C° 0 mm 3 mps 742 mmHg 89%
    04:00 0°C° 0 mm 3 mps 741 mmHg 91%
    05:00 +1°C° 0 mm 2 mps 741 mmHg 93%
    06:00 +1°C° 0 mm 2 mps 741 mmHg 95%
    07:00 +1°C° 0.1 mm 2 mps 740 mmHg 95%
    08:00 +2°C° 0.1 mm 1 mps 740 mmHg 95%
    09:00 +3°C° 0.1 mm 1 mps 740 mmHg 95%
    10:00 +3°C° 0 mm 1 mps 740 mmHg 92%
    11:00 +4°C° 0 mm 1 mps 740 mmHg 89%
    12:00 +4°C° 0 mm 1 mps 740 mmHg 85%
    13:00 +4°C° 0.1 mm 2 mps 740 mmHg 82%
    14:00 +4°C° 0.1 mm 2 mps 741 mmHg 78%
    15:00 +4°C° 0.1 mm 3 mps 741 mmHg 74%
    16:00 +3°C° 0 mm 3 mps 741 mmHg 78%
    17:00 +3°C° 0 mm 2 mps 742 mmHg 81%
    18:00 +2°C° 0 mm 2 mps 742 mmHg 85%
    19:00 +1°C° 0 mm 2 mps 743 mmHg 87%
    20:00 +1°C° 0 mm 2 mps 743 mmHg 88%
    21:00 -1°C° 0 mm 2 mps 744 mmHg 89%
    22:00 -1°C° 0 mm 2 mps 744 mmHg 89%
    23:00 -1°C° 0 mm 2 mps 745 mmHg 88%

    28 February, Friday

    Time Temperature Precipitation Wind Pressure Humidity
    00:00 -1°C° 0 mm 2 mps 745 mmHg 87%
    01:00 -1°C° 0 mm 2 mps 745 mmHg 88%
    02:00 -1°C° 0 mm 2 mps 744 mmHg 89%
    03:00 -1°C° 0 mm 2 mps 744 mmHg 90%
    04:00 0°C° 0 mm 3 mps 743 mmHg 90%
    05:00 0°C° 0 mm 3 mps 743 mmHg 89%
    06:00 -1°C° 0 mm 4 mps 742 mmHg 89%
    07:00 0°C° 0.8 mm 5 mps 741 mmHg 91%
    08:00 0°C° 0.8 mm 5 mps 740 mmHg 94%
    09:00 +1°C° 0.8 mm 6 mps 739 mmHg 96%
    10:00 +2°C° 2.4 mm 6 mps 737 mmHg 96%
    11:00 +3°C° 2.4 mm 7 mps 735 mmHg 96%
    12:00 +3°C° 2.4 mm 7 mps 734 mmHg 96%
    13:00 +5°C° 0.2 mm 8 mps 733 mmHg 91%
    14:00 +6°C° 0.2 mm 8 mps 732 mmHg 86%
    15:00 +8°C° 0.2 mm 9 mps 732 mmHg 81%
    16:00 +6°C° 0 mm 7 mps 732 mmHg 83%
    17:00 +5°C° 0 mm 6 mps 732 mmHg 85%
    18:00 +3°C° 0 mm 5 mps 733 mmHg 86%
    19:00 +3°C° 0 mm 5 mps 733 mmHg 88%
    20:00 +3°C° 0 mm 5 mps 733 mmHg 90%
    21:00 +2°C° 0 mm 5 mps 733 mmHg 92%
    22:00 +2°C° 0 mm 5 mps 732 mmHg 92%
    23:00 +2°C° 0 mm 5 mps 732 mmHg 93%

    29 February, Saturday

    Time Temperature Precipitation Wind Pressure Humidity
    00:00 +2°C° 0 mm 6 mps 731 mmHg 94%
    01:00 +2°C° 0 mm 5 mps 730 mmHg 94%
    02:00 +3°C° 0 mm 4 mps 728 mmHg 95%
    03:00 +3°C° 0 mm 3 mps 727 mmHg 95%
    04:00 +3°C° 3.7 mm 4 mps 725 mmHg 96%
    05:00 +1°C° 3.7 mm 6 mps 723 mmHg 97%
    06:00 -1°C° 3.7 mm 7 mps 722 mmHg 98%
    07:00 -2°C° 3.7 mm 8 mps 723 mmHg 97%
    08:00 -3°C° 3.7 mm 9 mps 723 mmHg 96%
    09:00 -4°C° 3.7 mm 10 mps 724 mmHg 96%
    10:00 -3°C° 0.1 mm 9 mps 725 mmHg 93%
    11:00 -2°C° 0.1 mm 8 mps 727 mmHg 89%
    12:00 -1°C° 0.1 mm 8 mps 728 mmHg 86%
    13:00 -1°C° 0.1 mm 8 mps 729 mmHg 85%
    14:00 -1°C° 0.1 mm 8 mps 729 mmHg 83%
    15:00 -1°C° 0.1 mm 8 mps 730 mmHg 82%
    16:00 -1°C° 0 mm 8 mps 730 mmHg 85%
    17:00 -1°C° 0 mm 7 mps 731 mmHg 89%
    18:00 -2°C° 0 mm 7 mps 731 mmHg 93%
    19:00 -2°C° 0 mm 7 mps 732 mmHg 90%
    20:00 -2°C° 0 mm 7 mps 732 mmHg 87%
    21:00 -2°C° 0 mm 7 mps 733 mmHg 85%
    22:00 -2°C° 0 mm 7 mps 733 mmHg 85%
    23:00 -3°C° 0 mm 7 mps 733 mmHg 85%
    Show more